User: anonymous   Login
Location: Unspecified
(0.0000°N, 0.0000°E)
Time: 12:18:41
(UTC+01:00)
Language:

Cosmos 1833 Rocket - Orbit

View from above orbital plane
View from above orbital plane
View from above satellite
View from above satellite

Ground track
Ground track

The orbit data is extracted from the following two-line orbital elements,

1 17590U 87027B   17058.19816216 -.00000020  00000-0  13918-4 0  9990
2 17590  71.0045  21.5810 0002982 128.2743 231.8649 14.16739589548548
Epoch (UTC): 27 February 2017 04:45:21
Eccentricity: 0.0002982
inclination: 71.0045°
perigee height: 834 km
apogee height: 838 km
right ascension of ascending node: 21.5810°
argument of perigee: 128.2743°
revolutions per day: 14.16739589
mean anomaly at epoch: 231.8649°
orbit number at epoch: 54854

The dashed part of the orbit path shows where the satellite is in the earth's shadow,  

DLR